Weather Roundup
Issued by NWS

Home | Current Version | Previous Version | Text Only | Print | Product List | Glossary On
Versions: 1 2 3 4 5 6 7 8 9 10 11 12 13 14 15 16 17 18 19 20 21 22 23 24 25 26 27 28 29 30 31 32 33 34 35 36 37 38 39 40 41 42 43 44 45 46 47 48 49 50
000
NZUS93 KARX 200559
HRRWXR

CURRENT HOURLY OBSERVATIONS ACROSS
MUCH OF THE UPPER MISSISSIPPI VALLEY
NATIONAL WEATHER SERVICE LA CROSSE WI
100 AM CDT SUN AUG 20 2017


...SOUTHEAST MINNESOTA...


CITY           SKY/WX    TMP DP  RH WIND       PRES   REMARKS
ROCHESTER      CLEAR     61  60  97 SE7       29.94F
ROCHESTER/MAYO FAIR      66  62  86 SE9       29.94S
WINONA         CLEAR     61  61 100 CALM      29.94S
AUSTIN         CLOUDY    64  61  88 S5        29.93F
ALBERT LEA     CLOUDY    70  64  83 S7        29.92S
DODGE CENTER   CLEAR     61  57  88 SE6       29.93F
PRESTON        CLEAR     61  58  88 S6        29.96S
OWATONNA       CLOUDY    68  63  83 S8        29.91F
FARIBAULT      CLEAR     66  63  88 S5        29.92S
$$

...ELSEWHERE IN MINNESOTA...


CITY           SKY/WX    TMP DP  RH WIND       PRES   REMARKS
MINNEAPOLIS    CLEAR     69  62  78 S8        29.90S
INTNL FALLS    CLEAR     63  58  83 CALM      29.81S
DULUTH         CLOUDY    63  60  90 SW8       29.89S
RED WING       CLEAR     63  61  94 CALM      29.91S FOG
REDWOOD FALLS  PTCLDY    65  62  90 S9        29.85F
MANKATO        CLOUDY    66  63  90 SE7       29.90F
WORTHINGTON    CLOUDY    69  64  84 S12G17    29.87F
FAIRMONT       CLOUDY    67  64  90 S5        29.91S
$$

...SOUTHWEST WISCONSIN...


CITY           SKY/WX    TMP DP  RH WIND       PRES   REMARKS
LA CROSSE      CLEAR     65  62  90 SE6       29.94S
PRAIRIE DU CHI CLEAR     62  60  93 CALM      29.97R
BOSCOBEL       FOG       58  57  97 CALM      29.97F VSB 1/2
LONE ROCK      NOT AVBL
PLATTEVILLE    CLEAR     65  62  91 SE5       30.00R
FORT MC COY    CLEAR     55  55 100 CALM      29.98R
CAMP DOUGLAS   CLEAR     57  57 100 CALM      29.97R
MAUSTON-NEW LI CLEAR     58  57  98 CALM      29.97R
VIROQUA        FAIR      65  61  85 S7        29.98S
WIS DELLS      CLEAR     61  58  90 S3        29.98R
$$

...ELSEWHERE IN WISCONSIN...


CITY           SKY/WX    TMP DP  RH WIND       PRES   REMARKS
MILWAUKEE      CLEAR     68  60  75 S5        29.99S
MADISON        CLEAR     63  61  93 CALM      29.99R
GREEN BAY      CLEAR     60  60 100 CALM      29.96R
EAU CLAIRE     NOT AVBL
BLACK RVR FLS  FAIR      54  54 100 CALM      29.96R FOG
MEDFORD        CLEAR     58  56  94 S3        29.97R
WAUSAU         CLEAR     60  59  96 SE3       29.96R
WIS RAPIDS     CLEAR     58  58 100 CALM      29.99R
MARSHFIELD     CLEAR     61  58  90 SW5       29.97R
RICE LAKE      FOG       60  59  97 CALM      29.95R VSB 3/4
$$

...NORTHEAST IOWA...


CITY           SKY/WX    TMP DP  RH WIND       PRES   REMARKS
WATERLOO       CLOUDY    64  61  90 SE6       29.93F
DUBUQUE        CLEAR     62  59  90 CALM      29.98S
DECORAH        PTCLDY    64  63  94 VRB5      29.96S
MASON CITY     CLOUDY    64  63  96 S7        29.94F
CHARLES CITY   CLOUDY    64  64 100 SE7       29.94F
OELWEIN        PTCLDY    63  63 100 SE7       29.97S
$$

...ELSEWHERE IN IOWA...


CITY           SKY/WX    TMP DP  RH WIND       PRES   REMARKS
DES MOINES     CLOUDY    72  64  76 SE9       29.91F
IOWA CITY      CLEAR     68  63  84 CALM      29.97S
FORT DODGE     CLOUDY    72  63  73 S7        29.93R
MARSHALLTOWN   CLOUDY    67  64  90 SE8       29.92F
CEDAR RAPIDS   CLEAR     64  62  93 SE5       29.96S
$$

...NORTHERN ILLINOIS...


CITY           SKY/WX    TMP DP  RH WIND       PRES   REMARKS
CHICAGO-OHARE  CLEAR     68  56  65 CALM      30.00R
CHICAGO-MIDWAY CLEAR     72  56  57 S5        30.00R
MOLINE         CLEAR     63  59  87 E5        29.97S
ROCKFORD       CLEAR     64  61  90 CALM      30.01R
PEORIA         CLEAR     69  64  84 E3        29.99R
$$

NOTE: "FAIR" INDICATES FEW OR NO CLOUDS BELOW 12,000 FEET WITH NO
SIGNIFICANT WEATHER AND/OR OBSTRUCTIONS TO VISIBILITY. WIND
SPEEDS ARE IN MILES-PER-HOUR.




USA.gov is the U.S. government's official web portal to all federal, state and local government web resources and services.